Terug naar catalogus

STARLINK-2343

ActiefCommunicatieVLEO
NORAD 47884·PAYLOAD·🇺🇸 United States

Gelanceerd Mar 14, 2021 vanaf Cape Canaveral Space Force Station

Loading…

Volgende Passages (komende 24 uur)

TLE

VersSource: CelesTrak SupGP

Epoch: Sep 15, 2026, 01:00 UTC

1 47884C 21021AA  26258.04215278  .00052339  00000+0  16834-2 0  2582
2 47884  53.1583 119.8197 0001528  81.1142  85.0513 15.31670242    11

Volg STARLINK-2343 in realtime met AllMySat

Download on the App Store